Regional Weather Roundup
Issued by NWS

Home | Current Version | Previous Version | Graphics & Text | Print | Product List | Glossary On
Versions: 1 2 3 4 5 6 7 8 9 10 11 12 13 14 15 16 17 18 19 20 21 22 23 24 25 26 27 28 29 30 31 32 33 34 35 36 37 38 39 40 41 42 43 44 45 46 47 48 49 50
000
ASUS43 KMPX 310210
RWRMN
WEATHER ROUNDUP FOR MINNESOTA
NATIONAL WEATHER SERVICE TWIN CITIES/CHANHASSEN MN
900 PM CDT SAT AUG 30 2014


NOTE: "FAIR" INDICATES FEW OR NO CLOUDS BELOW 12,000 FEET WITH NO
SIGNIFICANT WEATHER AND/OR OBSTRUCTIONS TO VISIBILITY. N/A MEANS
CURRENT SKY AND/OR WEATHER CONDITIONS ARE NOT AVAILABLE.

MNZ060>063-068>070-310300-
   Twin Cities Metro

CITY           SKY/WX    TMP DP  RH WIND       PRES   REMARKS
TWIN CITIES    LGT RAIN  70  63  78 SE13      29.87R
ST PAUL        CLOUDY    69  61  75 SE6       29.88R
CRYSTAL        CLOUDY    71  61  70 SE8       29.86R
BLAINE         CLOUDY    70  63  78 E8        29.87R
LAKEVILLE      RAIN      64  63  94 CALM      29.88R
EDEN PRAIRIE   MOCLDY    68  65  90 E6        29.87R
SOUTH ST PAUL  CLOUDY    69  61  75 CALM      29.88R
LAKE ELMO      FAIR      64  61  88 CALM      29.90R
$$
MNZ001>005-007-008-013>017-022>024-027-028-310300-
   Northwest Minnesota

CITY           SKY/WX    TMP DP  RH WIND       PRES   REMARKS
BEMIDJI        CLOUDY    62  58  86 SE9       29.86S
HALLOCK        CLEAR     63  52  67 SE7       29.79F
ROSEAU         CLEAR     61  54  77 E7        29.83S
WARROAD        CLEAR     63  57  82 E8        29.83F
THIEF RVR FALL CLEAR     61  55  82 SE7       29.83R
CROOKSTON      CLEAR     61  57  88 SE8       29.82S
FOSSTON        CLOUDY    63  55  77 SE7       29.85S
DETROIT LAKES  MOCLDY    63  59  88 SE7       29.85S
MOORHEAD       MOCLDY    66  64  94 S5        29.82F
PARK RAPIDS    CLOUDY    62  61  96 E5        29.86S
MAHNOMEN       CLOUDY    62  59  89 SE6       29.83F
$$
MNZ006-009>011-018-025>026-310300-
   North Central Minnesota

CITY           SKY/WX    TMP DP  RH WIND       PRES   REMARKS
BAUDETTE       CLEAR     59  54  83 CALM      29.84F
FLAG ISLAND    CLEAR     63  52  67 E5        29.83F
INTL FALLS     CLEAR     56  53  90 SE5       29.87S
WASKISH        CLEAR     59  55  88 CALM      29.86S
BIG FORK       PTCLDY    61  57  88 CALM      29.89S
LONGVILLE      CLOUDY    63  61  94 CALM      29.87S
GRAND RAPIDS   CLOUDY    63  57  82 SE5       29.88S
CRANE LAKE     CLEAR     52  52 100 CALM      29.91S
ORR            CLEAR     55  52  88 CALM      29.87S
COOK           CLOUDY    61  57  88 CALM      29.90S
WALKER         CLOUDY    63  60  90 SE3       29.87R
$$
MNZ012-019>021-037-310300-
   Northeast Minnesota

CITY           SKY/WX    TMP DP  RH WIND       PRES   REMARKS
DULUTH         CLOUDY    61  57  87 E8        29.91R
ELY            MOCLDY    57  55  94 CALM      29.91S
HIBBING        CLOUDY    63  58  83 E5        29.90S
EVELETH        CLOUDY    59  55  88 CALM      29.92R
DULUTH HARBOR  CLOUDY    64  61  88 NE12      29.90S
TWO HARBORS    CLOUDY    57  54  88 CALM      29.91R
SILVER BAY     PTCLDY    57  57 100 CALM      29.91S
GRAND MARAIS     N/A     60  58  92 W3        29.91R
G MARAIS ARPRT PTCLDY    55  52  88 CALM      29.94S
$$
MNZ029>031-032-039>041-046>048-054>057-064-310300-
   West Central Minnesota

CITY           SKY/WX    TMP DP  RH WIND       PRES   REMARKS
FERGUS FALLS   CLEAR     61  59  94 S3        29.84R
WHEATON        CLEAR     57  55  94 E7        29.84F
MORRIS         CLEAR     61  59  94 SE5       29.84S
ALEXANDRIA     CLOUDY    65  61  87 S5        29.87S
ELBOW LAKE     FAIR      60  59  96 SE3       29.84S
WADENA         CLEAR     59  57  94 CALM      29.86R
GLENWOOD       PTCLDY    64  63  94 CALM      29.87S
APPLETON       CLEAR     63  59  88 E6        29.84S
BENSON         CLEAR     61  59  94 CALM      29.85S
ORTONVILLE     CLEAR     63  59  88 E8        29.83F
MADISON        CLEAR     64  61  88 E7        29.84F
WILLMAR        FAIR      64  63  94 CALM      29.88S
$$
MNZ033>034-036-042>043-049>051-058-059-310300-
   Central Minnesota

CITY           SKY/WX    TMP DP  RH WIND       PRES   REMARKS
ST CLOUD       CLOUDY    71  64  78 SE3       29.86R
SAUK CENTRE    CLOUDY    66  64  94 CALM      29.86S
PAYNESVILLE    RAIN      64  63  96 S3        29.88R
AITKIN         MOCLDY    68  61  77 CALM      29.87R
PINE RIVER     CLOUDY    64  63  94 E3        29.91R
BRAINERD       CLOUDY    63  62  97 CALM      29.87S
STAPLES        CLEAR     61  61 100 CALM      29.87R
LONG PRAIRIE   MOCLDY    63  61  94 CALM      29.87S
LITTLE FALLS   MOCLDY    64  63  94 CALM      29.87R
LITCHFIELD     MOCLDY    66  66 100 CALM      29.88R
BUFFALO        CLEAR     66  63  88 CALM      29.88R
MAPLE LAKE     CLEAR     66  65  96 CALM      29.88R
$$
MNZ037-044-045-052-053-310300-
   East Central Minnesota

CITY           SKY/WX    TMP DP  RH WIND       PRES   REMARKS
PRINCETON      MOCLDY    70  64  83 E3        29.87R
MORA           PTCLDY    64  61  88 CALM      29.89R
CAMBRIDGE      MOCLDY    70  59  68 SE3       29.86R
RUSH CITY      CLEAR     64  60  86 SE3       29.88S
MOOSE LAKE     CLOUDY    63  59  88 CALM      29.88R
HINCKLEY       CLOUDY    66  63  88 E3        29.88S
CLOQUET        CLOUDY    61  57  88 E5        29.91R
MCGREGOR       CLOUDY    64  63  94 E3        29.89R
$$
MNZ071>073-080-081-089-090-097-098-310300-
   Southwest Minnesota

CITY           SKY/WX    TMP DP  RH WIND       PRES   REMARKS
MONTEVIDEO     CLEAR     61  61 100 S3        29.86F
GRANITE FALLS  CLEAR     63  62  96 CALM      29.87F
CANBY          CLEAR     61  59  93 SE3       29.85F
MARSHALL       CLEAR     66  61  82 SE8       29.85S
REDWOOD FALLS  CLEAR     65  62  90 E3        29.87R
OLIVIA         CLEAR     63  59  88 CALM      29.86S
PIPESTONE      CLEAR     64  59  82 S5        29.86F
WINDOM         PTCLDY    64  63  94 CALM      29.88S
WORTHINGTON    CLEAR     66  61  82 S3        29.89S
JACKSON        MOCLDY    66  63  88 CALM      29.89R
TRACY          CLEAR     65  63  94 CALM      29.87S
SLAYTON        CLEAR     62  61  95 CALM      29.88S
$$
MNZ065>067-074>077-082>085-091>093-310300-
   South Central Minnesota

CITY           SKY/WX    TMP DP  RH WIND       PRES   REMARKS
MANKATO        CLEAR     66  61  82 CALM      29.88R
NEW ULM        CLEAR     66  64  94 CALM      29.87S
ST JAMES       CLEAR     64  63  94 CALM      29.88R FOG
FAIRMONT       PTCLDY    64  59  82 E3        29.88R
GLENCOE        CLOUDY    69  63  80 CALM      29.87R
FARIBAULT      PTCLDY    70  61  73 CALM      29.89R
OWATONNA       CLEAR     68  64  88 CALM      29.89R
WASECA         CLEAR     63  59  88 CALM      29.90R
ALBERT LEA     CLEAR     66  66 100 CALM      29.89R
$$
MNZ078>079-086>088-094>096-310300-
   Southeast Minnesota

CITY           SKY/WX    TMP DP  RH WIND       PRES   REMARKS
ROCHESTER      CLEAR     66  62  87 E5        29.90R
RED WING       CLEAR     64  63  94 E5        29.87S
STANTON        CLOUDY    69  62  79 E3        29.87R
DODGE CENTER   CLOUDY    70  66  88 SE5       29.89R
WINONA         MOCLDY    70  64  83 E5        29.89R
AUSTIN         CLEAR     68  64  88 CALM      29.89R
PRESTON        PTCLDY    66  66 100 CALM      29.90R
$$
ABBREVIATIONS USED IN REMARKS
   TC - TEMPERATURES IN CELSIUS
  WCI - WIND CHILL INDEX
   HX - HEAT INDEX
  VSB - VISIBILITY
$$



USA.gov is the U.S. government's official web portal to all federal, state and local government web resources and services.